041  
ASUS43 KLSX 251010  
RWRMO  
 
WEATHER SUMMARY FOR MISSOURI  
NATIONAL WEATHER SERVICE SPRINGFIELD MO  
500 AM CDT SUN JUN 25 2017  
 
NOTE: "FAIR" INDICATES FEW OR NO CLOUDS BELOW 12,000 FEET WITH NO  
SIGNIFICANT WEATHER AND/OR S TO VISIBILITY
.  
CURRENT SKY AND/OR WEATHER CONDITIONS ARE NOT AVAILABLE FOR  
CHILLICOTHE AND FARMINGTON.  
 
MOZ001>031-035>038-043-044-053-054-251100-   
..NORTHERN AND WESTERN MISSOURI
 
 
 
CITY SKY/WX TMP DP RH WIND PRES REMARKS
 
KANSAS CTY INT PTCLDY 60 50 69 W7 30.24R  
KANSAS C DTWN PTCLDY 65 53 65 CALM 30.23R  
LEE'S SUMMIT CLOUDY 63 51 65 W7 30.24R  
ST JOSEPH CLEAR 54 50 86 CALM 30.24R  
CHILLICOTHE N/A 53 50 89 CALM 30.22R  
KIRKSVILLE CLEAR 50 49 96 CALM 30.20R  
 

 
MOZ066>068-077>081-088>096-101>105-251100-   
..SOUTHWEST MISSOURI
 
 
 
CITY SKY/WX TMP DP RH WIND PRES REMARKS
 
SPRINGFIELD PTCLDY 61 54 77 S5 30.25S  
JOPLIN CLOUDY 64 60 87 S6 30.26S  
BRANSON CLOUDY 63 55 77 CALM 30.27S  
 

 
MOZ032>034-039>042-045>050-055>058-069>072-251100-   
..CENTRAL MISSOURI
 
 
 
CITY SKY/WX TMP DP RH WIND PRES REMARKS
 
COLUMBIA CLEAR 60 48 64 SW8 30.20R  
JEFFERSON CITY PTCLDY 60 51 72 CALM 30.20R  
ROLLA CLEAR 56 50 80 SW12 30.22R  
SEDALIA PTCLDY 59 54 83 SW7 30.23R  
WHITEMAN AFB PTCLDY 61 51 70 SW9 30.21R  
WARRENSBURG PTCLDY 61 50 67 SW6 30.22S  
OSAGE BEACH CLEAR 53 51 93 CALM 30.24R  
 

 
MOZ051-052-059>065-251100-   
..EAST CENTRAL MISSOURI
 
 
 
CITY SKY/WX TMP DP RH WIND PRES REMARKS
 
ST LOUIS INTL PTCLDY 63 48 58 SW7 30.17S  
SPIRIT OF STL PTCLDY 58 50 75 W8 30.17S  
ST CHARLES PTCLDY 58 50 75 S3 30.17R  
 

 
MOZ072>076-082>087-097>100-106>115-251100-   
..SOUTH CENTRAL AND SOUTHEAST MISSOURI
 
 
 
CITY SKY/WX TMP DP RH WIND PRES REMARKS
 
CAPE GIRARDEAU PTCLDY 56 54 93 CALM 30.20R  
FARMINGTON PTCLDY 51 50 96 CALM 30.22R  
POPLAR BLUFF PTCLDY 59 57 93 CALM 30.20R  
WEST PLAINS CLEAR 56 51 84 CALM 30.26R  
 

 
 
 
CLICK HERE TO GO TO PREVIOUS BULLETINS.

The Nexlab MO Page Main Text Page